Saint Bonnet de Bellac- Haute Vienne - France
Donnes mto: dimanche, 29/01/2012
Date Horaire Temp. E. Hum. E. P.atmo. Pluie Vent Direction Direction Ensoleilleme Solaire P. de rose Temp au vent Rafales
29/01/2012 00:00 2,2 C 93 % 1023,8 hPa 0,0 mm 1,8 km/h (1 Bft) N 360 0 min 0 W/m 1,2 C 2,2 C 1,8 km/h (1 Bft)
29/01/2012 00:10 2,2 C 93 % 1023,8 hPa 0,0 mm 0,4 km/h (0 Bft) N-NE 22 0 min 0 W/m 1,2 C 2,2 C 0,4 km/h (0 Bft)
29/01/2012 00:20 2,3 C 93 % 1023,9 hPa 0,0 mm 3,2 km/h (1 Bft) N 360 0 min 0 W/m 1,3 C 2,3 C 7,2 km/h (2 Bft)
29/01/2012 00:30 2,3 C 93 % 1023,9 hPa 0,0 mm 2,5 km/h (1 Bft) N-NE 22 0 min 0 W/m 1,3 C 2,3 C 6,1 km/h (2 Bft)
29/01/2012 00:40 2,3 C 93 % 1023,9 hPa 0,0 mm 3,6 km/h (1 Bft) NE 45 0 min 0 W/m 1,3 C 2,3 C 6,5 km/h (2 Bft)
29/01/2012 00:50 2,3 C 93 % 1023,8 hPa 0,0 mm 3,2 km/h (1 Bft) N-NE 22 0 min 0 W/m 1,3 C 2,3 C 4,3 km/h (1 Bft)
29/01/2012 01:00 2,4 C 93 % 1023,8 hPa 0,0 mm 4,3 km/h (1 Bft) N-NE 22 0 min 0 W/m 1,4 C 2,4 C 10,1 km/h (2 Bft)
29/01/2012 01:10 2,4 C 93 % 1023,7 hPa 0,0 mm 5,4 km/h (2 Bft) N-NE 22 0 min 0 W/m 1,4 C 1,0 C 7,2 km/h (2 Bft)
29/01/2012 01:20 2,4 C 93 % 1023,7 hPa 0,0 mm 6,1 km/h (2 Bft) N-NE 22 0 min 0 W/m 1,4 C 0,7 C 7,6 km/h (2 Bft)
29/01/2012 01:30 2,4 C 93 % 1023,7 hPa 0,0 mm 5,8 km/h (2 Bft) N-NE 22 0 min 0 W/m 1,4 C 0,8 C 11,9 km/h (2 Bft)
29/01/2012 01:40 2,4 C 93 % 1023,7 hPa 0,0 mm 1,8 km/h (1 Bft) E-NE 67 0 min 0 W/m 1,4 C 2,4 C 4,3 km/h (1 Bft)
29/01/2012 01:50 2,4 C 93 % 1023,6 hPa 0,0 mm 5,4 km/h (2 Bft) NE 45 0 min 0 W/m 1,4 C 1,0 C 9,4 km/h (2 Bft)
29/01/2012 02:02 2,4 C 93 % 1023,6 hPa 0,0 mm 3,2 km/h (1 Bft) NE 45 0 min 0 W/m 1,4 C 2,4 C 6,5 km/h (2 Bft)
29/01/2012 02:10 2,4 C 93 % 1023,4 hPa 0,0 mm 1,1 km/h (1 Bft) N-NE 22 0 min 0 W/m 1,4 C 2,4 C 1,1 km/h (1 Bft)
29/01/2012 02:20 2,4 C 93 % 1023,4 hPa 0,0 mm 3,6 km/h (1 Bft) N-NE 22 0 min 0 W/m 1,4 C 2,4 C 6,8 km/h (2 Bft)
29/01/2012 02:30 2,4 C 93 % 1023,4 hPa 0,0 mm 2,9 km/h (1 Bft) N-NE 22 0 min 0 W/m 1,4 C 2,4 C 7,2 km/h (2 Bft)
29/01/2012 02:40 2,4 C 93 % 1023,4 hPa 0,0 mm 7,2 km/h (2 Bft) NE 45 0 min 0 W/m 1,4 C 0,3 C 7,9 km/h (2 Bft)
29/01/2012 02:50 2,4 C 93 % 1023,4 hPa 0,0 mm 9,0 km/h (2 Bft) N-NE 22 0 min 0 W/m 1,4 C -0,2 C 15,1 km/h (3 Bft)
29/01/2012 03:00 2,4 C 93 % 1023,5 hPa 0,0 mm 5,8 km/h (2 Bft) N-NE 22 0 min 0 W/m 1,4 C 0,8 C 9,4 km/h (2 Bft)
29/01/2012 03:10 2,4 C 93 % 1023,6 hPa 0,0 mm 7,6 km/h (2 Bft) N-NE 22 0 min 0 W/m 1,4 C 0,2 C 9,0 km/h (2 Bft)
29/01/2012 03:20 2,5 C 93 % 1023,5 hPa 0,0 mm 7,2 km/h (2 Bft) N 360 0 min 0 W/m 1,5 C 0,4 C 10,8 km/h (2 Bft)
29/01/2012 03:30 2,5 C 93 % 1023,5 hPa 0,0 mm 9,7 km/h (2 Bft) N 360 0 min 0 W/m 1,5 C -0,3 C 9,7 km/h (2 Bft)
29/01/2012 03:40 2,5 C 93 % 1023,4 hPa 0,0 mm 5,0 km/h (1 Bft) N 360 0 min 0 W/m 1,5 C 1,2 C 7,6 km/h (2 Bft)
29/01/2012 03:50 2,5 C 93 % 1023,4 hPa 0,0 mm 6,5 km/h (2 Bft) N 360 0 min 0 W/m 1,5 C 0,7 C 13,3 km/h (3 Bft)
29/01/2012 04:00 2,5 C 93 % 1023,4 hPa 0,0 mm 6,5 km/h (2 Bft) N 360 0 min 0 W/m 1,5 C 0,7 C 10,4 km/h (2 Bft)
29/01/2012 04:10 2,5 C 93 % 1023,4 hPa 0,0 mm 5,0 km/h (1 Bft) N-NE 22 0 min 0 W/m 1,5 C 1,2 C 9,0 km/h (2 Bft)
29/01/2012 04:20 2,5 C 93 % 1023,3 hPa 0,0 mm 5,8 km/h (2 Bft) N 360 0 min 0 W/m 1,5 C 0,9 C 5,8 km/h (2 Bft)
29/01/2012 04:30 2,5 C 93 % 1023,3 hPa 0,0 mm 6,5 km/h (2 Bft) N-NO 337 0 min 0 W/m 1,5 C 0,7 C 10,8 km/h (2 Bft)
29/01/2012 04:40 2,6 C 93 % 1023,3 hPa 0,0 mm 6,1 km/h (2 Bft) E-NE 67 0 min 0 W/m 1,6 C 0,9 C 14,4 km/h (3 Bft)
29/01/2012 04:50 2,6 C 93 % 1023,3 hPa 0,0 mm 9,7 km/h (2 Bft) NE 45 0 min 0 W/m 1,6 C -0,1 C 13,7 km/h (3 Bft)
29/01/2012 05:00 2,6 C 93 % 1023,2 hPa 0,0 mm 6,5 km/h (2 Bft) N-NE 22 0 min 0 W/m 1,6 C 0,8 C 9,0 km/h (2 Bft)
29/01/2012 05:10 2,6 C 93 % 1023,2 hPa 0,0 mm 10,4 km/h (2 Bft) N 360 0 min 0 W/m 1,6 C -0,3 C 24,1 km/h (4 Bft)
29/01/2012 05:20 2,6 C 93 % 1023,1 hPa 0,0 mm 6,5 km/h (2 Bft) N-NE 22 0 min 0 W/m 1,6 C 0,8 C 11,2 km/h (2 Bft)
29/01/2012 05:30 2,6 C 93 % 1023,1 hPa 0,0 mm 8,3 km/h (2 Bft) N-NE 22 0 min 0 W/m 1,6 C 0,2 C 8,3 km/h (2 Bft)
29/01/2012 05:40 2,6 C 93 % 1023,2 hPa 0,0 mm 7,2 km/h (2 Bft) N 360 0 min 0 W/m 1,6 C 0,6 C 10,1 km/h (2 Bft)
29/01/2012 05:50 2,6 C 93 % 1023,2 hPa 0,0 mm 6,5 km/h (2 Bft) NE 45 0 min 0 W/m 1,6 C 0,8 C 6,5 km/h (2 Bft)
29/01/2012 06:00 2,7 C 93 % 1023,2 hPa 0,0 mm 7,9 km/h (2 Bft) N 360 0 min 0 W/m 1,7 C 0,5 C 10,4 km/h (2 Bft)
29/01/2012 06:10 2,8 C 93 % 1023,3 hPa 0,0 mm 5,0 km/h (1 Bft) N-NE 22 0 min 0 W/m 1,8 C 1,6 C 9,0 km/h (2 Bft)
29/01/2012 06:20 2,8 C 93 % 1023,3 hPa 0,0 mm 6,5 km/h (2 Bft) N-NE 22 0 min 0 W/m 1,8 C 1,0 C 12,2 km/h (2 Bft)
29/01/2012 06:30 2,8 C 93 % 1023,4 hPa 0,0 mm 6,1 km/h (2 Bft) NE 45 0 min 0 W/m 1,8 C 1,2 C 10,8 km/h (2 Bft)
29/01/2012 06:40 2,8 C 93 % 1023,5 hPa 0,0 mm 7,2 km/h (2 Bft) N-NE 22 0 min 0 W/m 1,8 C 0,8 C 12,6 km/h (3 Bft)
29/01/2012 06:50 2,8 C 93 % 1023,5 hPa 0,0 mm 10,1 km/h (2 Bft) N 360 0 min 0 W/m 1,8 C 0,0 C 11,5 km/h (2 Bft)
29/01/2012 07:00 2,8 C 93 % 1023,5 hPa 0,0 mm 6,1 km/h (2 Bft) N-NE 22 0 min 0 W/m 1,8 C 1,2 C 10,4 km/h (2 Bft)
29/01/2012 07:10 2,8 C 93 % 1023,6 hPa 0,0 mm 8,6 km/h (2 Bft) N-NE 22 0 min 0 W/m 1,8 C 0,4 C 14,4 km/h (3 Bft)
29/01/2012 07:20 2,8 C 93 % 1023,6 hPa 0,0 mm 5,8 km/h (2 Bft) NE 45 0 min 0 W/m 1,8 C 1,3 C 8,6 km/h (2 Bft)
29/01/2012 07:30 2,8 C 93 % 1023,7 hPa 0,0 mm 6,8 km/h (2 Bft) N 360 0 min 0 W/m 1,8 C 0,9 C 12,2 km/h (2 Bft)
29/01/2012 07:40 2,8 C 93 % 1023,7 hPa 0,0 mm 9,4 km/h (2 Bft) N-NE 22 0 min 0 W/m 1,8 C 0,2 C 13,3 km/h (3 Bft)
29/01/2012 07:50 2,8 C 93 % 1023,7 hPa 0,0 mm 5,4 km/h (2 Bft) N-NE 22 0 min 0 W/m 1,8 C 1,4 C 10,4 km/h (2 Bft)
29/01/2012 08:00 2,8 C 93 % 1023,7 hPa 0,0 mm 4,7 km/h (1 Bft) NE 45 0 min 0 W/m 1,8 C 1,7 C 9,4 km/h (2 Bft)
29/01/2012 08:10 2,7 C 93 % 1023,8 hPa 0,0 mm 2,9 km/h (1 Bft) NE 45 0 min 0 W/m 1,7 C 2,7 C 3,6 km/h (1 Bft)
29/01/2012 08:20 2,7 C 92 % 1023,7 hPa 0,0 mm 2,9 km/h (1 Bft) N-NE 22 0 min 0 W/m 1,5 C 2,7 C 6,1 km/h (2 Bft)
29/01/2012 08:30 2,7 C 92 % 1023,7 hPa 0,0 mm 6,1 km/h (2 Bft) N-NE 22 0 min 0 W/m 1,5 C 1,0 C 9,7 km/h (2 Bft)
29/01/2012 08:40 2,7 C 92 % 1023,7 hPa 0,0 mm 7,6 km/h (2 Bft) N-NE 22 2 min 0 W/m 1,5 C 0,6 C 9,4 km/h (2 Bft)
29/01/2012 08:50 2,8 C 92 % 1023,7 hPa 0,0 mm 11,2 km/h (2 Bft) NE 45 2 min 0 W/m 1,6 C -0,2 C 22,3 km/h (4 Bft)
29/01/2012 09:00 2,6 C 92 % 1023,8 hPa 0,0 mm 6,8 km/h (2 Bft) E-NE 67 2 min 0 W/m 1,4 C 0,7 C 9,0 km/h (2 Bft)
29/01/2012 09:10 2,6 C 92 % 1024,0 hPa 0,0 mm 8,6 km/h (2 Bft) NE 45 2 min 0 W/m 1,4 C 0,1 C 12,6 km/h (3 Bft)
29/01/2012 09:20 2,5 C 92 % 1023,9 hPa 0,0 mm 9,4 km/h (2 Bft) NE 45 2 min 0 W/m 1,3 C -0,2 C 10,8 km/h (2 Bft)
29/01/2012 09:30 2,6 C 91 % 1023,9 hPa 0,0 mm 9,0 km/h (2 Bft) N-NE 22 2 min 0 W/m 1,3 C 0,0 C 10,8 km/h (2 Bft)
29/01/2012 09:40 2,5 C 90 % 1023,8 hPa 0,0 mm 1,4 km/h (1 Bft) N-NE 22 2 min 0 W/m 1,0 C 2,5 C 2,9 km/h (1 Bft)
29/01/2012 09:50 2,6 C 90 % 1023,8 hPa 0,0 mm 4,7 km/h (1 Bft) N-NE 22 2 min 0 W/m 1,1 C 1,5 C 7,2 km/h (2 Bft)
29/01/2012 10:00 2,8 C 89 % 1023,7 hPa 0,0 mm 4,7 km/h (1 Bft) N-NE 22 2 min 0 W/m 1,2 C 1,7 C 7,2 km/h (2 Bft)
29/01/2012 10:10 2,9 C 88 % 1023,8 hPa 0,0 mm 4,7 km/h (1 Bft) NE 45 2 min 0 W/m 1,1 C 1,8 C 6,1 km/h (2 Bft)
29/01/2012 10:20 2,9 C 88 % 1023,9 hPa 0,0 mm 4,7 km/h (1 Bft) N-NO 337 2 min 0 W/m 1,1 C 1,8 C 13,7 km/h (3 Bft)
29/01/2012 10:30 2,8 C 88 % 1024,0 hPa 0,0 mm 7,2 km/h (2 Bft) N 360 2 min 0 W/m 1,0 C 0,8 C 13,0 km/h (3 Bft)
29/01/2012 10:40 2,6 C 88 % 1024,0 hPa 0,0 mm 7,6 km/h (2 Bft) N-NE 22 2 min 0 W/m 0,8 C 0,4 C 7,6 km/h (2 Bft)
29/01/2012 10:50 2,5 C 88 % 1024,0 hPa 0,0 mm 2,5 km/h (1 Bft) N 360 2 min 0 W/m 0,7 C 2,5 C 4,3 km/h (1 Bft)
29/01/2012 11:00 2,4 C 88 % 1024,0 hPa 0,0 mm 7,9 km/h (2 Bft) N 360 2 min 0 W/m 0,6 C 0,1 C 11,5 km/h (2 Bft)
29/01/2012 11:10 2,5 C 88 % 1024,0 hPa 0,0 mm 8,6 km/h (2 Bft) E-NE 67 2 min 0 W/m 0,7 C 0,0 C 14,4 km/h (3 Bft)
29/01/2012 11:20 2,6 C 88 % 1024,0 hPa 0,0 mm 7,9 km/h (2 Bft) E-NE 67 2 min 0 W/m 0,8 C 0,3 C 13,3 km/h (3 Bft)
29/01/2012 11:30 2,6 C 88 % 1024,0 hPa 0,0 mm 7,2 km/h (2 Bft) N-NO 337 2 min 0 W/m 0,8 C 0,6 C 11,9 km/h (2 Bft)
29/01/2012 11:40 2,6 C 88 % 1024,1 hPa 0,0 mm 6,8 km/h (2 Bft) N-NE 22 2 min 0 W/m 0,8 C 0,7 C 6,8 km/h (2 Bft)
29/01/2012 11:50 2,8 C 87 % 1024,0 hPa 0,0 mm 9,0 km/h (2 Bft) N-NE 22 2 min 0 W/m 0,9 C 0,3 C 13,7 km/h (3 Bft)
29/01/2012 12:00 2,6 C 86 % 1024,2 hPa 0,0 mm 5,8 km/h (2 Bft) N-NE 22 2 min 0 W/m 0,5 C 1,0 C 7,9 km/h (2 Bft)
29/01/2012 12:10 2,6 C 86 % 1024,1 hPa 0,0 mm 9,0 km/h (2 Bft) N-NE 22 2 min 0 W/m 0,5 C 0,0 C 13,0 km/h (3 Bft)
29/01/2012 12:20 2,7 C 86 % 1024,1 hPa 0,0 mm 5,8 km/h (2 Bft) N 360 2 min 0 W/m 0,6 C 1,2 C 8,6 km/h (2 Bft)
29/01/2012 12:30 2,8 C 86 % 1024,0 hPa 0,0 mm 9,7 km/h (2 Bft) NE 45 2 min 0 W/m 0,7 C 0,1 C 14,4 km/h (3 Bft)
29/01/2012 12:40 2,9 C 85 % 1024,0 hPa 0,0 mm 11,9 km/h (2 Bft) N 360 2 min 0 W/m 0,6 C -0,3 C 18,0 km/h (3 Bft)
29/01/2012 12:50 2,9 C 85 % 1023,9 hPa 0,0 mm 10,1 km/h (2 Bft) NE 45 2 min 0 W/m 0,6 C 0,1 C 11,5 km/h (2 Bft)
29/01/2012 13:00 3,1 C 85 % 1023,8 hPa 0,0 mm 7,2 km/h (2 Bft) N-NE 22 2 min 0 W/m 0,8 C 1,1 C 10,8 km/h (2 Bft)
29/01/2012 13:10 3,3 C 84 % 1023,7 hPa 0,0 mm 11,5 km/h (2 Bft) NE 45 2 min 0 W/m 0,9 C 0,3 C 13,7 km/h (3 Bft)
29/01/2012 13:20 3,6 C 83 % 1023,7 hPa 0,0 mm 8,6 km/h (2 Bft) N-NE 22 2 min 0 W/m 1,0 C 1,3 C 8,6 km/h (2 Bft)
29/01/2012 13:30 3,8 C 83 % 1023,5 hPa 0,0 mm 7,2 km/h (2 Bft) N-NE 22 2 min 0 W/m 1,2 C 2,0 C 14,8 km/h (3 Bft)
29/01/2012 13:40 3,8 C 82 % 1023,4 hPa 0,0 mm 11,9 km/h (2 Bft) N-NE 22 2 min 0 W/m 1,0 C 0,8 C 14,4 km/h (3 Bft)
29/01/2012 13:50 3,6 C 82 % 1023,5 hPa 0,0 mm 4,3 km/h (1 Bft) N-NE 22 2 min 0 W/m 0,8 C 3,6 C 4,3 km/h (1 Bft)
29/01/2012 14:00 3,4 C 81 % 1023,5 hPa 0,0 mm 8,6 km/h (2 Bft) NE 45 2 min 0 W/m 0,5 C 1,1 C 11,9 km/h (2 Bft)
29/01/2012 14:10 3,4 C 81 % 1023,4 hPa 0,0 mm 4,0 km/h (1 Bft) N-NE 22 2 min 0 W/m 0,5 C 3,4 C 6,5 km/h (2 Bft)
29/01/2012 14:20 3,3 C 80 % 1023,5 hPa 0,0 mm 9,4 km/h (2 Bft) N-NE 22 2 min 0 W/m 0,2 C 0,8 C 13,3 km/h (3 Bft)
29/01/2012 14:30 3,2 C 80 % 1023,4 hPa 0,0 mm 6,1 km/h (2 Bft) N 360 2 min 0 W/m 0,1 C 1,6 C 6,5 km/h (2 Bft)
29/01/2012 14:40 3,2 C 80 % 1023,2 hPa 0,0 mm 11,5 km/h (2 Bft) N-NE 22 2 min 0 W/m 0,1 C 0,2 C 20,5 km/h (4 Bft)
29/01/2012 14:50 3,3 C 80 % 1023,1 hPa 0,0 mm 7,2 km/h (2 Bft) NE 45 2 min 0 W/m 0,2 C 1,4 C 11,5 km/h (2 Bft)
29/01/2012 15:00 3,4 C 80 % 1023,1 hPa 0,0 mm 5,0 km/h (1 Bft) NE 45 2 min 0 W/m 0,3 C 2,3 C 7,6 km/h (2 Bft)
29/01/2012 15:10 3,4 C 80 % 1023,2 hPa 0,0 mm 3,6 km/h (1 Bft) N-NE 22 2 min 0 W/m 0,3 C 3,4 C 6,8 km/h (2 Bft)
29/01/2012 15:20 3,5 C 80 % 1023,1 hPa 0,0 mm 6,8 km/h (2 Bft) N-NE 22 2 min 0 W/m 0,4 C 1,7 C 7,6 km/h (2 Bft)
29/01/2012 15:30 3,4 C 79 % 1023,1 hPa 0,0 mm 6,8 km/h (2 Bft) N-NE 22 2 min 0 W/m 0,1 C 1,6 C 10,1 km/h (2 Bft)
29/01/2012 15:40 3,4 C 80 % 1023,2 hPa 0,0 mm 6,8 km/h (2 Bft) N 360 2 min 0 W/m 0,3 C 1,6 C 10,8 km/h (2 Bft)
29/01/2012 15:50 3,4 C 79 % 1023,3 hPa 0,0 mm 5,4 km/h (2 Bft) N 360 2 min 0 W/m 0,1 C 2,1 C 10,4 km/h (2 Bft)
29/01/2012 16:00 3,3 C 80 % 1023,4 hPa 0,0 mm 7,2 km/h (2 Bft) N 360 2 min 0 W/m 0,2 C 1,4 C 7,2 km/h (2 Bft)
29/01/2012 16:10 3,2 C 80 % 1023,5 hPa 0,0 mm 4,0 km/h (1 Bft) N-NE 22 2 min 0 W/m 0,1 C 3,2 C 9,4 km/h (2 Bft)
29/01/2012 16:20 3,1 C 79 % 1023,6 hPa 0,0 mm 11,9 km/h (2 Bft) N-NO 337 2 min 0 W/m -0,2 C -0,0 C 14,0 km/h (3 Bft)
29/01/2012 16:30 3,1 C 78 % 1023,6 hPa 0,0 mm 6,1 km/h (2 Bft) N-NE 22 2 min 0 W/m -0,4 C 1,5 C 16,6 km/h (3 Bft)
29/01/2012 16:40 3,1 C 79 % 1023,6 hPa 0,0 mm 5,4 km/h (2 Bft) N 360 2 min 0 W/m -0,2 C 1,8 C 9,7 km/h (2 Bft)
29/01/2012 16:50 2,9 C 79 % 1023,7 hPa 0,0 mm 9,7 km/h (2 Bft) N 360 2 min 0 W/m -0,4 C 0,2 C 14,8 km/h (3 Bft)
29/01/2012 17:00 2,9 C 80 % 1023,7 hPa 0,0 mm 4,7 km/h (1 Bft) N 360 2 min 0 W/m -0,2 C 1,8 C 9,0 km/h (2 Bft)
29/01/2012 17:10 2,9 C 81 % 1023,6 hPa 0,0 mm 9,0 km/h (2 Bft) E-NE 67 2 min 0 W/m -0,0 C 0,4 C 13,0 km/h (3 Bft)
29/01/2012 17:20 2,8 C 81 % 1023,7 hPa 0,0 mm 4,0 km/h (1 Bft) NE 45 2 min 0 W/m -0,1 C 2,8 C 7,2 km/h (2 Bft)
29/01/2012 17:30 2,7 C 81 % 1023,7 hPa 0,0 mm 7,2 km/h (2 Bft) E-NE 67 2 min 0 W/m -0,2 C 0,7 C 11,2 km/h (2 Bft)
29/01/2012 17:40 2,5 C 81 % 1023,7 hPa 0,0 mm 1,8 km/h (1 Bft) E-NE 67 2 min 0 W/m -0,4 C 2,5 C 4,3 km/h (1 Bft)
29/01/2012 17:50 2,2 C 81 % 1023,7 hPa 0,0 mm 4,0 km/h (1 Bft) NE 45 0 min 0 W/m -0,7 C 2,2 C 4,0 km/h (1 Bft)
29/01/2012 18:00 2,0 C 81 % 1023,8 hPa 0,0 mm 2,9 km/h (1 Bft) NE 45 0 min 0 W/m -0,9 C 2,0 C 4,0 km/h (1 Bft)
29/01/2012 18:10 1,8 C 82 % 1023,9 hPa 0,0 mm 5,8 km/h (2 Bft) NE 45 0 min 0 W/m -0,9 C 0,1 C 11,5 km/h (2 Bft)
29/01/2012 18:20 1,7 C 82 % 1024,0 hPa 0,0 mm 4,3 km/h (1 Bft) N-NE 22 0 min 0 W/m -1,0 C 1,7 C 6,5 km/h (2 Bft)
29/01/2012 18:30 1,6 C 82 % 1024,1 hPa 0,0 mm 5,0 km/h (1 Bft) N-NE 22 0 min 0 W/m -1,1 C 0,2 C 8,6 km/h (2 Bft)
29/01/2012 18:40 1,5 C 82 % 1024,4 hPa 0,0 mm 4,0 km/h (1 Bft) N-NE 22 0 min 0 W/m -1,2 C 1,5 C 10,1 km/h (2 Bft)
29/01/2012 18:50 1,4 C 82 % 1024,4 hPa 0,0 mm 4,3 km/h (1 Bft) NE 45 0 min 0 W/m -1,3 C 1,4 C 5,8 km/h (2 Bft)
29/01/2012 19:00 1,4 C 81 % 1024,4 hPa 0,0 mm 12,6 km/h (3 Bft) NE 45 0 min 0 W/m -1,5 C -2,2 C 13,7 km/h (3 Bft)
29/01/2012 19:10 1,3 C 81 % 1024,4 hPa 0,0 mm 7,6 km/h (2 Bft) N-NE 22 0 min 0 W/m -1,6 C -1,1 C 16,9 km/h (3 Bft)
29/01/2012 19:20 1,2 C 81 % 1024,4 hPa 0,0 mm 8,3 km/h (2 Bft) N-NE 22 0 min 0 W/m -1,7 C -1,4 C 8,6 km/h (2 Bft)
29/01/2012 19:30 1,1 C 80 % 1024,4 hPa 0,0 mm 7,2 km/h (2 Bft) N-NE 22 0 min 0 W/m -2,0 C -1,2 C 9,4 km/h (2 Bft)
29/01/2012 19:40 0,9 C 80 % 1024,5 hPa 0,0 mm 5,4 km/h (2 Bft) NE 45 0 min 0 W/m -2,2 C -0,7 C 10,8 km/h (2 Bft)
29/01/2012 19:50 0,8 C 80 % 1024,6 hPa 0,0 mm 3,6 km/h (1 Bft) NE 45 0 min 0 W/m -2,2 C 0,8 C 9,4 km/h (2 Bft)
29/01/2012 20:00 0,8 C 80 % 1024,6 hPa 0,0 mm 9,4 km/h (2 Bft) NE 45 0 min 0 W/m -2,2 C -2,2 C 13,0 km/h (3 Bft)
29/01/2012 20:10 0,6 C 79 % 1024,6 hPa 0,0 mm 6,5 km/h (2 Bft) N-NE 22 0 min 0 W/m -2,6 C -1,5 C 6,5 km/h (2 Bft)
29/01/2012 20:20 0,5 C 79 % 1024,6 hPa 0,0 mm 3,6 km/h (1 Bft) NE 45 0 min 0 W/m -2,7 C 0,5 C 6,1 km/h (2 Bft)
29/01/2012 20:30 0,4 C 80 % 1024,5 hPa 0,0 mm 2,2 km/h (1 Bft) E-NE 67 0 min 0 W/m -2,6 C 0,4 C 3,6 km/h (1 Bft)
29/01/2012 20:40 0,3 C 80 % 1024,5 hPa 0,0 mm 2,5 km/h (1 Bft) E-NE 67 0 min 0 W/m -2,7 C 0,3 C 3,2 km/h (1 Bft)
29/01/2012 20:50 0,2 C 80 % 1024,6 hPa 0,0 mm 1,1 km/h (1 Bft) NE 45 0 min 0 W/m -2,8 C 0,2 C 3,2 km/h (1 Bft)
29/01/2012 21:00 0,2 C 81 % 1024,5 hPa 0,0 mm 1,4 km/h (1 Bft) E-NE 67 0 min 0 W/m -2,7 C 0,2 C 4,3 km/h (1 Bft)
29/01/2012 21:10 0,2 C 81 % 1024,6 hPa 0,0 mm 2,2 km/h (1 Bft) NE 45 0 min 0 W/m -2,7 C 0,2 C 3,6 km/h (1 Bft)
29/01/2012 21:20 0,3 C 81 % 1024,6 hPa 0,0 mm 5,8 km/h (2 Bft) NE 45 0 min 0 W/m -2,6 C -1,6 C 10,4 km/h (2 Bft)
29/01/2012 21:30 0,3 C 80 % 1024,5 hPa 0,0 mm 3,6 km/h (1 Bft) N-NE 22 0 min 0 W/m -2,7 C 0,3 C 6,5 km/h (2 Bft)
29/01/2012 21:40 0,3 C 80 % 1024,4 hPa 0,0 mm 8,3 km/h (2 Bft) NE 45 0 min 0 W/m -2,7 C -2,5 C 10,8 km/h (2 Bft)
29/01/2012 21:50 0,3 C 80 % 1024,3 hPa 0,0 mm 8,3 km/h (2 Bft) N-NE 22 0 min 0 W/m -2,7 C -2,5 C 15,5 km/h (3 Bft)
29/01/2012 22:00 0,3 C 80 % 1024,3 hPa 0,0 mm 5,4 km/h (2 Bft) NE 45 0 min 0 W/m -2,7 C -1,4 C 7,9 km/h (2 Bft)
29/01/2012 22:10 0,3 C 80 % 1024,4 hPa 0,0 mm 6,1 km/h (2 Bft) NE 45 0 min 0 W/m -2,7 C -1,7 C 6,1 km/h (2 Bft)
29/01/2012 22:20 0,3 C 80 % 1024,3 hPa 0,0 mm 2,2 km/h (1 Bft) N 360 0 min 0 W/m -2,7 C 0,3 C 3,2 km/h (1 Bft)
29/01/2012 22:30 0,2 C 80 % 1024,3 hPa 0,0 mm 4,0 km/h (1 Bft) NE 45 0 min 0 W/m -2,8 C 0,2 C 4,7 km/h (1 Bft)
29/01/2012 22:40 0,2 C 80 % 1024,2 hPa 0,0 mm 4,0 km/h (1 Bft) NE 45 0 min 0 W/m -2,8 C 0,2 C 4,0 km/h (1 Bft)
29/01/2012 22:50 0,1 C 80 % 1024,2 hPa 0,0 mm 5,4 km/h (2 Bft) NE 45 0 min 0 W/m -2,9 C -1,7 C 5,8 km/h (2 Bft)
29/01/2012 23:00 0,0 C 81 % 1024,4 hPa 0,0 mm 4,3 km/h (1 Bft) E-NE 67 0 min 0 W/m -2,9 C 0,0 C 5,0 km/h (1 Bft)
29/01/2012 23:10 -0,2 C 81 % 1024,3 hPa 0,0 mm 3,2 km/h (1 Bft) NE 45 0 min 0 W/m -3,1 C -0,2 C 6,5 km/h (2 Bft)
29/01/2012 23:20 -0,2 C 81 % 1024,3 hPa 0,0 mm 2,9 km/h (1 Bft) NE 45 0 min 0 W/m -3,1 C -0,2 C 4,3 km/h (1 Bft)
29/01/2012 23:30 -0,5 C 82 % 1024,3 hPa 0,0 mm 1,8 km/h (1 Bft) E-NE 67 0 min 0 W/m -3,2 C -0,5 C 4,0 km/h (1 Bft)
29/01/2012 23:40 -0,6 C 82 % 1024,4 hPa 0,0 mm 0,7 km/h (0 Bft) NE 45 0 min 0 W/m -3,3 C -0,6 C 3,2 km/h (1 Bft)
29/01/2012 23:50 -0,8 C 82 % 1024,4 hPa 0,0 mm 0,0 km/h (0 Bft) E-NE 67 0 min 0 W/m -3,5 C -0,8 C 0,0 km/h (0 Bft)
_ Min-Heure 23:50 16:30 15:30 - 23:50 - - - - 23:50 21:50 23:50
Minimum _ -0,8 C 78 % 1023,1 hPa - 0,0 km/h (0 Bft) - - - - -3,5 C -2,5 C 0,0 km/h (0 Bft)
_ Max-Heure 13:40 08:10 21:20 23:50 19:00 - - 17:40 23:50 08:00 13:50 05:10
Maximum _ 3,8 C 93 % 1024,6 hPa 0,0 mm 12,6 km/h
NE (3 Bft)
- - 2 min 0 W/m 1,8 C 3,6 C 24,1 km/h
N (4 Bft)
Moyenne _ 2,2 C 86 % 1023,8 hPa #0,0 mm 6,0 km/h (2 Bft) N-NE - #1:50 h 0 W/m 0,2 C 0,8 C 9,3 km/h (2 Bft)
Saint Bonnet de Bellac- Haute Vienne - France